TimeCST,TemperatureF,Dew PointF,Humidity,Sea Level PressureIn,VisibilityMPH,Wind Direction,Wind SpeedMPH,Gust SpeedMPH,PrecipitationIn,Events,Conditions,WindDirDegrees,DateUTC
12:15 AM,-2.2,-7.6,78,-9999,-9999.0,WNW,9.2,-,N/A,,Clear,300,2014-02-12 06:15:00
12:35 AM,-4.0,-7.6,85,-9999,-9999.0,West,5.8,-,N/A,,Unknown,280,2014-02-12 06:35:00
12:55 AM,-4.0,-7.6,85,-9999,-9999.0,WNW,8.1,-,N/A,,Unknown,300,2014-02-12 06:55:00
1:15 AM,-2.2,-7.6,78,-9999,-9999.0,WNW,8.1,-,N/A,,Scattered Clouds,300,2014-02-12 07:15:00
1:35 AM,-2.2,-5.8,85,-9999,-9999.0,NW,9.2,-,N/A,,Overcast,310,2014-02-12 07:35:00
1:55 AM,-2.2,-7.6,78,-9999,-9999.0,NW,8.1,-,N/A,,Mostly Cloudy,320,2014-02-12 07:55:00
2:15 AM,-4.0,-7.6,85,-9999,-9999.0,WNW,5.8,-,N/A,,Unknown,300,2014-02-12 08:15:00
2:35 AM,-4.0,-7.6,85,-9999,-9999.0,West,5.8,-,N/A,,Unknown,270,2014-02-12 08:35:00
2:55 AM,-4.0,-9.4,78,-9999,-9999.0,NW,5.8,-,N/A,,Clear,310,2014-02-12 08:55:00
3:15 AM,-4.0,-9.4,78,-9999,-9999.0,NW,6.9,-,N/A,,Clear,310,2014-02-12 09:15:00
3:35 AM,-4.0,-9.4,78,-9999,-9999.0,WNW,4.6,-,N/A,,Clear,300,2014-02-12 09:35:00
3:55 AM,-5.8,-9.4,84,-9999,-9999.0,Calm,Calm,-,N/A,,Unknown,0,2014-02-12 09:55:00
4:15 AM,-7.6,-11.2,84,-9999,-9999.0,South,9.2,-,N/A,,Unknown,190,2014-02-12 10:15:00
4:35 AM,-7.6,-11.2,84,-9999,-9999.0,South,4.6,-,N/A,,Unknown,180,2014-02-12 10:35:00
4:55 AM,-7.6,-11.2,84,-9999,-9999.0,WSW,4.6,-,N/A,,Unknown,240,2014-02-12 10:55:00
5:15 AM,-9.4,-13.0,84,-9999,-9999.0,Calm,Calm,-,N/A,,Unknown,0,2014-02-12 11:15:00
5:35 AM,-9.4,-11.2,92,-9999,-9999.0,Calm,Calm,-,N/A,,Unknown,0,2014-02-12 11:35:00
5:55 AM,-9.4,-13.0,84,-9999,-9999.0,SE,6.9,-,N/A,,Unknown,140,2014-02-12 11:55:00
6:15 AM,-9.4,-13.0,84,-9999,-9999.0,SE,4.6,-,N/A,,Unknown,140,2014-02-12 12:15:00
6:35 AM,-9.4,-13.0,84,-9999,-9999.0,Calm,Calm,-,N/A,,Unknown,0,2014-02-12 12:35:00
6:55 AM,-11.2,-13.0,92,-9999,-9999.0,Calm,Calm,-,N/A,,Unknown,0,2014-02-12 12:55:00
7:15 AM,-11.2,-14.8,84,-9999,-9999.0,SE,4.6,-,N/A,,Unknown,130,2014-02-12 13:15:00
7:35 AM,-9.4,-13.0,84,-9999,-9999.0,SSE,6.9,-,N/A,,Unknown,150,2014-02-12 13:35:00
7:55 AM,-9999,-9999,N/A,-9999,-9999.0,SE,6.9,-,N/A,,Unknown,130,2014-02-12 13:55:00
8:15 AM,-9.4,-13.0,84,-9999,-9999.0,East,5.8,-,N/A,,Unknown,80,2014-02-12 14:15:00
8:35 AM,-9.4,-13.0,84,-9999,-9999.0,East,4.6,-,N/A,,Unknown,90,2014-02-12 14:35:00
8:55 AM,-9.4,-11.2,92,-9999,-9999.0,Calm,Calm,-,N/A,,Unknown,0,2014-02-12 14:55:00
9:15 AM,-4.0,-7.6,85,-9999,-9999.0,SE,10.4,-,N/A,,Unknown,140,2014-02-12 15:15:00
9:35 AM,-2.2,-7.6,78,-9999,-9999.0,SSE,10.4,-,N/A,,Partly Cloudy,150,2014-02-12 15:35:00
9:55 AM,-2.2,-5.8,85,-9999,-9999.0,SSE,15.0,-,N/A,,Unknown,150,2014-02-12 15:55:00
10:15 AM,-0.4,-4.0,85,-9999,-9999.0,SSE,15.0,-,N/A,,Unknown,150,2014-02-12 16:15:00
10:35 AM,-0.4,-2.2,92,-9999,-9999.0,SSE,12.7,-,N/A,,Mostly Cloudy,150,2014-02-12 16:35:00
10:55 AM,1.4,-2.2,85,-9999,-9999.0,SSE,18.4,21.9,N/A,,Overcast,150,2014-02-12 16:55:00
11:15 AM,1.4,-0.4,92,-9999,-9999.0,SE,15.0,-,N/A,,Unknown,140,2014-02-12 17:15:00
11:35 AM,3.2,-0.4,85,-9999,-9999.0,SE,17.3,-,N/A,,Mostly Cloudy,140,2014-02-12 17:35:00
11:55 AM,5.0,1.4,85,-9999,-9999.0,SSE,18.4,23.0,N/A,,Overcast,150,2014-02-12 17:55:00
12:15 PM,5.0,3.2,92,-9999,-9999.0,SSE,18.4,25.3,N/A,,Overcast,150,2014-02-12 18:15:00
12:35 PM,6.8,3.2,85,-9999,-9999.0,SSE,15.0,-,N/A,,Unknown,150,2014-02-12 18:35:00
12:55 PM,6.8,6.8,100,-9999,-9999.0,SSE,17.3,25.3,N/A,,Unknown,150,2014-02-12 18:55:00
1:15 PM,8.6,8.6,100,-9999,-9999.0,SE,18.4,23.0,N/A,,Mostly Cloudy,140,2014-02-12 19:15:00
1:35 PM,8.6,8.6,100,-9999,-9999.0,SE,16.1,-,N/A,,Mostly Cloudy,140,2014-02-12 19:35:00
1:55 PM,10.4,10.4,100,-9999,-9999.0,SE,11.5,-,N/A,,Mostly Cloudy,140,2014-02-12 19:55:00
2:15 PM,10.4,10.4,100,-9999,-9999.0,SE,12.7,18.4,N/A,,Unknown,130,2014-02-12 20:15:00
2:35 PM,12.2,12.2,100,-9999,-9999.0,SE,16.1,21.9,N/A,,Unknown,140,2014-02-12 20:35:00
2:55 PM,14.0,14.0,100,-9999,-9999.0,SE,16.1,21.9,N/A,,Unknown,130,2014-02-12 20:55:00
3:15 PM,14.0,14.0,100,-9999,-9999.0,SE,16.1,-,N/A,,Unknown,140,2014-02-12 21:15:00
3:35 PM,15.8,15.8,100,-9999,-9999.0,SE,19.6,23.0,N/A,,Unknown,140,2014-02-12 21:35:00
3:55 PM,15.8,15.8,100,-9999,-9999.0,SSE,20.7,24.2,N/A,,Mostly Cloudy,150,2014-02-12 21:55:00
4:15 PM,17.6,17.6,100,-9999,-9999.0,SSE,15.0,-,N/A,,Unknown,150,2014-02-12 22:15:00
4:35 PM,17.6,17.6,100,-9999,-9999.0,SSE,17.3,23.0,N/A,,Unknown,150,2014-02-12 22:35:00
4:55 PM,19.4,19.4,100,-9999,-9999.0,SSE,16.1,28.8,N/A,,Unknown,150,2014-02-12 22:55:00
5:15 PM,19.4,19.4,100,-9999,-9999.0,SSE,15.0,-,N/A,,Unknown,150,2014-02-12 23:15:00
5:35 PM,19.4,19.4,100,-9999,-9999.0,SSE,15.0,-,N/A,,Unknown,160,2014-02-12 23:35:00
5:55 PM,19.4,19.4,100,-9999,-9999.0,SSE,20.7,-,N/A,,Mostly Cloudy,160,2014-02-12 23:55:00
6:15 PM,21.2,21.2,100,-9999,-9999.0,SSE,15.0,23.0,N/A,,Unknown,160,2014-02-13 00:15:00
6:35 PM,23.0,23.0,100,-9999,-9999.0,South,16.1,24.2,N/A,,Unknown,170,2014-02-13 00:35:00
6:55 PM,23.0,23.0,100,-9999,-9999.0,South,13.8,18.4,N/A,,Mostly Cloudy,170,2014-02-13 00:55:00
7:15 PM,23.0,23.0,100,-9999,-9999.0,South,18.4,26.5,N/A,,Overcast,180,2014-02-13 01:15:00
7:35 PM,24.8,24.8,100,-9999,-9999.0,South,12.7,-,N/A,,Overcast,190,2014-02-13 01:35:00
7:55 PM,24.8,24.8,100,-9999,-9999.0,SSW,13.8,-,N/A,,Mostly Cloudy,210,2014-02-13 01:55:00
8:15 PM,26.6,26.6,100,-9999,-9999.0,SSW,16.1,-,N/A,,Unknown,210,2014-02-13 02:15:00
8:35 PM,28.4,28.4,100,-9999,-9999.0,SW,17.3,-,N/A,,Mostly Cloudy,220,2014-02-13 02:35:00
8:55 PM,32.0,32.0,100,-9999,-9999.0,West,17.3,-,N/A,,Unknown,260,2014-02-13 02:55:00
9:15 PM,33.8,32.0,93,-9999,-9999.0,West,19.6,25.3,N/A,,Unknown,280,2014-02-13 03:15:00
9:35 PM,35.6,32.0,87,-9999,-9999.0,WNW,28.8,33.4,N/A,,Unknown,290,2014-02-13 03:35:00
9:55 PM,32.0,32.0,100,-9999,-9999.0,WNW,31.1,42.6,N/A,,Unknown,300,2014-02-13 03:55:00
10:15 PM,30.2,30.2,100,-9999,-9999.0,WNW,33.4,46.0,N/A,,Unknown,300,2014-02-13 04:15:00
10:35 PM,26.6,26.6,100,-9999,-9999.0,WNW,34.5,46.0,N/A,,Unknown,300,2014-02-13 04:35:00
10:55 PM,24.8,24.8,100,-9999,-9999.0,WNW,34.5,43.7,N/A,,Mostly Cloudy,300,2014-02-13 04:55:00
11:15 PM,19.4,19.4,100,-9999,-9999.0,NW,26.5,34.5,N/A,,Mostly Cloudy,310,2014-02-13 05:15:00
11:35 PM,17.6,17.6,100,-9999,-9999.0,NW,27.6,33.4,N/A,,Unknown,310,2014-02-13 05:35:00
11:55 PM,15.8,15.8,100,-9999,-9999.0,NW,27.6,35.7,N/A,,Mostly Cloudy,310,2014-02-13 05:55:00